| time (UTC) | temp F | wind direction | speed MPH | gust MPH | rain 1hr in | rain 24hr in | rain mn in | humidity % | barometer mb |
| 20260506001554 | 78 | 168 | 13.0 | 18.0 | 0.00 | 0.02 | 0.01 | 87 | 1007.0 |
| 20260506000054 | 78 | 178 | 14.0 | 19.0 | 0.00 | 0.02 | 0.01 | 86 | 1006.9 |
| 20260505234546 | 78 | 184 | 12.0 | 16.0 | 0.00 | 0.02 | 0.01 | 86 | 1007.0 |
| 20260505233056 | 78 | 184 | 11.0 | 15.0 | 0.00 | 0.02 | 0.01 | 86 | 1006.9 |
| 20260505231552 | 79 | 181 | 9.0 | 17.0 | 0.00 | 0.02 | 0.01 | 85 | 1007.0 |
| 20260505230112 | 79 | 186 | 8.0 | 13.0 | 0.00 | 0.02 | 0.01 | 84 | 1007.0 |
| 20260505224545 | 79 | 186 | 10.0 | 15.0 | 0.00 | 0.02 | 0.01 | 84 | 1006.9 |
| 20260505223047 | 79 | 183 | 11.0 | 16.0 | 0.00 | 0.02 | 0.01 | 83 | 1007.0 |
| 20260505221554 | 78 | 177 | 7.0 | 10.0 | 0.01 | 0.02 | 0.01 | 84 | 1006.9 |
| 20260505220054 | 79 | 200 | 9.0 | 16.0 | 0.01 | 0.02 | 0.01 | 83 | 1007.1 |
| 20260505214548 | 79 | 199 | 14.0 | 18.0 | 0.01 | 0.02 | 0.01 | 83 | 1007.2 |
| 20260505213048 | 79 | 186 | 10.0 | 12.0 | 0.01 | 0.02 | 0.01 | 83 | 1007.3 |
| 20260505211558 | 80 | 206 | 10.0 | 13.0 | 0.00 | 0.01 | 0.00 | 80 | 1007.3 |
| 20260505210046 | 79 | 205 | 7.0 | 10.0 | 0.00 | 0.01 | 0.00 | 82 | 1007.7 |
| 20260505204549 | 80 | 211 | 12.0 | 15.0 | 0.00 | 0.01 | 0.00 | 81 | 1007.8 |
| 20260505203051 | 79 | 210 | 9.0 | 12.0 | 0.00 | 0.01 | 0.00 | 83 | 1008.2 |
| 20260505201551 | 79 | 186 | 10.0 | 15.0 | 0.00 | 0.01 | 0.00 | 82 | 1008.5 |
| 20260505200056 | 79 | 223 | 9.0 | 14.0 | 0.00 | 0.01 | 0.00 | 82 | 1008.6 |
| 20260505194554 | 79 | 202 | 9.0 | 20.0 | 0.00 | 0.01 | 0.00 | 83 | 1008.8 |
| 20260505193101 | 78 | 217 | 9.0 | 13.0 | 0.00 | 0.01 | 0.00 | 84 | 1008.9 |
| 20260505191554 | 77 | 203 | 9.0 | 13.0 | 0.00 | 0.01 | 0.00 | 85 | 1008.8 |
| 20260505190052 | 77 | 203 | 9.0 | 14.0 | 0.00 | 0.01 | 0.00 | 85 | 1009.2 |
| 20260505184551 | 78 | 212 | 10.0 | 15.0 | 0.00 | 0.01 | 0.00 | 84 | 1009.3 |
| 20260505183046 | 77 | 216 | 12.0 | 14.0 | 0.00 | 0.01 | 0.00 | 85 | 1009.4 |
| 20260505181554 | 77 | 213 | 14.0 | 22.0 | 0.00 | 0.01 | 0.00 | 84 | 1009.5 |
| 20260505180045 | 77 | 217 | 12.0 | 19.0 | 0.00 | 0.01 | 0.00 | 85 | 1009.5 |
| 20260505174557 | 77 | 219 | 12.0 | 15.0 | 0.00 | 0.01 | 0.00 | 85 | 1009.6 |
| 20260505173047 | 77 | 220 | 10.0 | 16.0 | 0.00 | 0.01 | 0.00 | 85 | 1009.8 |
| 20260505171548 | 76 | 215 | 12.0 | 17.0 | 0.00 | 0.01 | 0.00 | 85 | 1009.7 |
| 20260505170050 | 76 | 217 | 12.0 | 16.0 | 0.00 | 0.01 | 0.00 | 86 | 1009.9 |
| 20260505164554 | 76 | 205 | 13.0 | 18.0 | 0.00 | 0.01 | 0.00 | 85 | 1009.9 |
| 20260505163054 | 76 | 185 | 13.0 | 17.0 | 0.00 | 0.01 | 0.00 | 86 | 1010.0 |
| 20260505161551 | 76 | 216 | 10.0 | 17.0 | 0.00 | 0.01 | 0.00 | 86 | 1010.0 |
| 20260505153047 | 75 | 214 | 11.0 | 15.0 | 0.00 | 0.01 | 0.00 | 87 | 1009.9 |
| 20260505151553 | 75 | 196 | 10.0 | 14.0 | 0.00 | 0.01 | 0.00 | 87 | 1009.9 |
| 20260505150105 | 74 | 205 | 12.0 | 18.0 | 0.00 | 0.01 | 0.00 | 88 | 1009.8 |
| 20260505124553 | 70 | 177 | 11.0 | 16.0 | 0.00 | 0.01 | 0.00 | 93 | 1009.4 |
| 20260505123057 | 69 | 164 | 11.0 | 15.0 | 0.00 | 0.01 | 0.00 | 92 | 1009.0 |
| 20260505121544 | 69 | 179 | 10.0 | 14.0 | 0.00 | 0.01 | 0.00 | 93 | 1009.4 |
| 20260505120051 | 69 | 163 | 11.0 | 15.0 | 0.00 | 0.01 | 0.00 | 93 | 1009.1 |
| 20260505114552 | 68 | 171 | 9.0 | 14.0 | 0.00 | 0.01 | 0.00 | 93 | 1009.3 |
| 20260505113047 | 68 | 187 | 10.0 | 14.0 | 0.00 | 0.01 | 0.00 | 93 | 1009.3 |
| 20260505111546 | 68 | 174 | 12.0 | 18.0 | 0.00 | 0.01 | 0.00 | 93 | 1008.8 |
| 20260505101551 | 68 | 171 | 9.0 | 13.0 | 0.00 | 0.01 | 0.00 | 92 | 1009.0 |
| 20260505100048 | 68 | 167 | 11.0 | 14.0 | 0.00 | 0.01 | 0.00 | 91 | 1008.8 |
| 20260505094552 | 68 | 165 | 11.0 | 13.0 | 0.00 | 0.01 | 0.00 | 91 | 1009.0 |
| 20260505093053 | 68 | 186 | 10.0 | 12.0 | 0.00 | 0.01 | 0.00 | 91 | 1009.2 |
| 20260505091543 | 68 | 175 | 9.0 | 14.0 | 0.00 | 0.01 | 0.00 | 90 | 1009.4 |
| 20260505090053 | 68 | 182 | 10.0 | 13.0 | 0.00 | 0.01 | 0.00 | 90 | 1009.4 |
| 20260505084554 | 69 | 171 | 9.0 | 12.0 | 0.00 | 0.01 | 0.00 | 89 | 1009.4 |
| 20260505083058 | 69 | 171 | 8.0 | 11.0 | 0.00 | 0.01 | 0.00 | 89 | 1009.7 |
| 20260505081558 | 69 | 175 | 8.0 | 12.0 | 0.00 | 0.01 | 0.00 | 88 | 1009.9 |
| 20260505080051 | 69 | 171 | 10.0 | 13.0 | 0.00 | 0.01 | 0.00 | 88 | 1009.6 |
| 20260505074542 | 70 | 176 | 10.0 | 12.0 | 0.00 | 0.02 | 0.00 | 87 | 1009.8 |
| 20260505073049 | 70 | 198 | 11.0 | 15.0 | 0.00 | 0.02 | 0.00 | 86 | 1009.9 |
| 20260505071550 | 70 | 194 | 11.0 | 15.0 | 0.00 | 0.02 | 0.00 | 86 | 1010.1 |
| 20260505070048 | 71 | 201 | 13.0 | 18.0 | 0.00 | 0.02 | 0.00 | 85 | 1010.2 |
| 20260505064549 | 71 | 191 | 13.0 | 18.0 | 0.00 | 0.02 | 0.00 | 85 | 1010.5 |
| 20260505063051 | 71 | 194 | 14.0 | 18.0 | 0.00 | 0.02 | 0.00 | 84 | 1010.4 |
| 20260505061550 | 71 | 201 | 14.0 | 19.0 | 0.00 | 0.02 | 0.00 | 83 | 1010.4 |
| 20260505060052 | 72 | 198 | 16.0 | 24.0 | 0.00 | 0.02 | 0.00 | 83 | 1010.6 |
| 20260505054556 | 72 | 197 | 17.0 | 22.0 | 0.00 | 0.02 | 0.00 | 82 | 1010.5 |
| 20260505053047 | 72 | 200 | 17.0 | 23.0 | 0.00 | 0.02 | 0.00 | 83 | 1010.7 |
| 20260505051544 | 72 | 198 | 18.0 | 22.0 | 0.00 | 0.02 | 0.00 | 82 | 1010.9 |
| 20260505041549 | 71 | 188 | 16.0 | 23.0 | 0.01 | 0.02 | 0.02 | 83 | 1011.0 |
| 20260505040047 | 71 | 186 | 17.0 | 25.0 | 0.01 | 0.02 | 0.02 | 82 | 1011.2 |
| 20260505034552 | 71 | 186 | 17.0 | 22.0 | 0.00 | 0.01 | 0.01 | 82 | 1011.1 |
| 20260505033049 | 71 | 186 | 18.0 | 23.0 | 0.00 | 0.01 | 0.01 | 82 | 1011.2 |
| 20260505031557 | 71 | 177 | 18.0 | 25.0 | 0.00 | 0.01 | 0.01 | 82 | 1011.2 |
| 20260505024551 | 72 | 181 | 19.0 | 25.0 | 0.00 | 0.01 | 0.01 | 80 | 1011.1 |
| 20260505023048 | 72 | 179 | 18.0 | 26.0 | 0.00 | 0.01 | 0.01 | 79 | 1010.9 |
| 20260505021550 | 72 | 182 | 19.0 | 26.0 | 0.00 | 0.01 | 0.01 | 79 | 1010.8 |
| 20260505020050 | 73 | 185 | 19.0 | 25.0 | 0.00 | 0.01 | 0.01 | 78 | 1010.6 |
| 20260505014602 | 73 | 196 | 19.0 | 26.0 | 0.00 | 0.01 | 0.01 | 78 | 1010.5 |
| 20260505013047 | 73 | 180 | 17.0 | 23.0 | 0.00 | 0.01 | 0.01 | 77 | 1010.6 |
| 20260505011551 | 73 | 178 | 18.0 | 25.0 | 0.00 | 0.01 | 0.01 | 77 | 1010.5 |
| 20260505010045 | 73 | 174 | 20.0 | 27.0 | 0.00 | 0.01 | 0.01 | 75 | 1010.4 |
| 20260505004556 | 74 | 194 | 20.0 | 26.0 | 0.00 | 0.01 | 0.01 | 76 | 1010.6 |
| 20260505003047 | 74 | 180 | 20.0 | 25.0 | 0.00 | 0.01 | 0.01 | 74 | 1010.6 |